Location: ????????
(60.5616°N, 46.8254°E)
Time: 05:12:26
(UTC+00:00)

Genesis I - Pass Details

Date: 18 February 2020
Orbit: 498 x 525 km, 64.5° (Epoch: 29 March)

Event Time Altitude Azimuth Distance (km) Brightness Sun altitude
Rises 15:51:33 0° 288° (WNW) 2,652 8.4 -15.6°
Reaches altitude 10° 15:53:48 10° 294° (WNW) 1,758 7.0 -15.9°
Maximum altitude 15:57:38 50° 10° (N) 670 3.7 -16.4°
Enters shadow 15:59:04 32° 66° (ENE) 901 3.9 -16.6°
